| time (UTC) | temp F | wind direction | speed MPH | gust MPH | rain 1hr in | rain 24hr in | rain mn in | humidity % | barometer mb |
| 20260904010825 | 87 | 171 | 0.0 | 0.0 | 0.00 | 0.00 | 0.00 | 56 | 1012.4 |
| 20260904010319 | 87 | 171 | 0.0 | 0.0 | 0.00 | 0.00 | 0.00 | 55 | 1012.4 |
| 20260904005837 | 88 | 171 | 0.0 | 0.0 | 0.00 | 0.00 | 0.00 | 54 | 1012.4 |
| 20260904005330 | 88 | 181 | 0.0 | 0.0 | 0.00 | 0.00 | 0.00 | 55 | 1012.3 |
| 20260904004825 | 89 | 181 | 0.0 | 0.0 | 0.00 | 0.00 | 0.00 | 52 | 1012.3 |
| 20260904004340 | 90 | 181 | 0.0 | 0.0 | 0.00 | 0.00 | 0.00 | 51 | 1012.2 |
| 20260904003832 | 90 | 181 | 0.0 | 0.0 | 0.00 | 0.00 | 0.00 | 51 | 1012.3 |
| 20260904003327 | 91 | 181 | 0.0 | 0.0 | 0.00 | 0.00 | 0.00 | 48 | 1012.2 |
| 20260904002841 | 92 | 181 | 0.0 | 0.0 | 0.00 | 0.00 | 0.00 | 48 | 1012.1 |
| 20260904002335 | 92 | 181 | 0.0 | 0.0 | 0.00 | 0.00 | 0.00 | 47 | 1012.2 |
| 20260904001851 | 93 | 182 | 0.0 | 0.0 | 0.00 | 0.00 | 0.00 | 47 | 1012.2 |
| 20260904001325 | 93 | 183 | 0.0 | 0.0 | 0.00 | 0.00 | 0.00 | 46 | 1012.1 |
| 20260904000824 | 94 | 203 | 0.0 | 3.0 | 0.00 | 0.00 | 0.00 | 45 | 1012.0 |
| 20260904000357 | 94 | 204 | 0.0 | 3.0 | 0.00 | 0.00 | 0.00 | 44 | 1012.1 |
| 20260903235827 | 95 | 196 | 0.0 | 0.0 | 0.00 | 0.00 | 0.00 | 44 | 1012.1 |
| 20260903235320 | 95 | 167 | 0.0 | 0.0 | 0.00 | 0.00 | 0.00 | 44 | 1012.1 |
| 20260903234834 | 95 | 122 | 0.0 | 2.0 | 0.00 | 0.00 | 0.00 | 44 | 1012.0 |
| 20260903234326 | 96 | 222 | 0.0 | 4.0 | 0.00 | 0.00 | 0.00 | 43 | 1012.0 |
| 20260903233836 | 96 | 166 | 2.0 | 5.0 | 0.00 | 0.00 | 0.00 | 43 | 1012.0 |
| 20260903233329 | 96 | 163 | 0.0 | 5.0 | 0.00 | 0.00 | 0.00 | 42 | 1012.0 |
| 20260903232824 | 96 | 214 | 0.0 | 0.0 | 0.00 | 0.00 | 0.00 | 42 | 1012.0 |
| 20260903232324 | 96 | 214 | 0.0 | 4.0 | 0.00 | 0.00 | 0.00 | 42 | 1012.0 |
| 20260903231818 | 97 | 197 | 1.0 | 5.0 | 0.00 | 0.00 | 0.00 | 41 | 1012.1 |
| 20260903231332 | 97 | 244 | 1.0 | 5.0 | 0.00 | 0.00 | 0.00 | 41 | 1012.0 |
| 20260903230846 | 97 | 211 | 2.0 | 4.0 | 0.00 | 0.00 | 0.00 | 41 | 1012.0 |
| 20260903230339 | 97 | 218 | 1.0 | 4.0 | 0.00 | 0.00 | 0.00 | 40 | 1012.0 |
| 20260903225832 | 97 | 189 | 1.0 | 4.0 | 0.00 | 0.00 | 0.00 | 40 | 1012.0 |
| 20260903225327 | 98 | 182 | 0.0 | 3.0 | 0.00 | 0.00 | 0.00 | 41 | 1012.0 |
| 20260903224823 | 98 | 220 | 1.0 | 6.0 | 0.00 | 0.00 | 0.00 | 40 | 1011.9 |
| 20260903224320 | 98 | 215 | 0.0 | 6.0 | 0.00 | 0.00 | 0.00 | 40 | 1011.9 |
| 20260903223835 | 98 | 206 | 0.0 | 6.0 | 0.00 | 0.00 | 0.00 | 41 | 1011.9 |
| 20260903223328 | 98 | 215 | 3.0 | 6.0 | 0.00 | 0.00 | 0.00 | 39 | 1012.0 |
| 20260903222823 | 99 | 53 | 1.0 | 5.0 | 0.00 | 0.00 | 0.00 | 40 | 1011.9 |
| 20260903222336 | 99 | 174 | 0.0 | 8.0 | 0.00 | 0.00 | 0.00 | 39 | 1012.0 |
| 20260903221831 | 99 | 187 | 3.0 | 8.0 | 0.00 | 0.00 | 0.00 | 38 | 1012.0 |
| 20260903221346 | 100 | 216 | 0.0 | 4.0 | 0.00 | 0.00 | 0.00 | 38 | 1012.0 |
| 20260903220838 | 100 | 168 | 1.0 | 9.0 | 0.00 | 0.00 | 0.00 | 39 | 1012.0 |
| 20260903220331 | 100 | 231 | 3.0 | 9.0 | 0.00 | 0.00 | 0.00 | 39 | 1012.1 |
| 20260903215830 | 100 | 211 | 0.0 | 6.0 | 0.00 | 0.00 | 0.00 | 39 | 1012.2 |
| 20260903215323 | 100 | 194 | 2.0 | 9.0 | 0.00 | 0.00 | 0.00 | 37 | 1012.2 |
| 20260903214857 | 100 | 144 | 2.0 | 11.0 | 0.00 | 0.00 | 0.00 | 37 | 1012.3 |
| 20260903214332 | 100 | 198 | 0.0 | 11.0 | 0.00 | 0.00 | 0.00 | 41 | 1012.3 |
| 20260903213825 | 100 | 203 | 1.0 | 7.0 | 0.00 | 0.00 | 0.00 | 39 | 1012.3 |
| 20260903213339 | 101 | 233 | 3.0 | 7.0 | 0.00 | 0.00 | 0.00 | 38 | 1012.4 |
| 20260903212831 | 101 | 145 | 1.0 | 7.0 | 0.00 | 0.00 | 0.00 | 38 | 1012.4 |
| 20260903212326 | 101 | 167 | 1.0 | 7.0 | 0.00 | 0.00 | 0.00 | 37 | 1012.5 |
| 20260903211824 | 101 | 137 | 2.0 | 7.0 | 0.00 | 0.00 | 0.00 | 38 | 1012.6 |
| 20260903211319 | 101 | 225 | 2.0 | 7.0 | 0.00 | 0.00 | 0.00 | 38 | 1012.5 |
| 20260903210833 | 102 | 231 | 1.0 | 6.0 | 0.00 | 0.00 | 0.00 | 37 | 1012.6 |
| 20260903210327 | 102 | 153 | 0.0 | 7.0 | 0.00 | 0.00 | 0.00 | 39 | 1012.7 |
| 20260903205822 | 102 | 159 | 2.0 | 7.0 | 0.00 | 0.00 | 0.00 | 39 | 1012.7 |
| 20260903205337 | 101 | 197 | 2.0 | 6.0 | 0.00 | 0.00 | 0.00 | 38 | 1012.7 |
| 20260903204830 | 101 | 213 | 2.0 | 6.0 | 0.00 | 0.00 | 0.00 | 38 | 1012.7 |
| 20260903204325 | 101 | 160 | 2.0 | 6.0 | 0.00 | 0.00 | 0.00 | 39 | 1012.7 |
| 20260903203823 | 101 | 157 | 2.0 | 5.0 | 0.00 | 0.00 | 0.00 | 39 | 1012.7 |
| 20260903203337 | 100 | 217 | 2.0 | 9.0 | 0.00 | 0.00 | 0.00 | 38 | 1012.8 |
| 20260903202832 | 101 | 205 | 2.0 | 9.0 | 0.00 | 0.00 | 0.00 | 40 | 1012.9 |
| 20260903202327 | 101 | 184 | 1.0 | 8.0 | 0.00 | 0.00 | 0.00 | 40 | 1012.9 |
| 20260903201822 | 101 | 66 | 2.0 | 8.0 | 0.00 | 0.00 | 0.00 | 39 | 1012.9 |
| 20260903201336 | 102 | 176 | 3.0 | 6.0 | 0.00 | 0.00 | 0.00 | 41 | 1013.0 |
| 20260903200829 | 101 | 181 | 1.0 | 7.0 | 0.00 | 0.00 | 0.00 | 40 | 1013.0 |
| 20260903200324 | 101 | 210 | 3.0 | 7.0 | 0.00 | 0.00 | 0.00 | 39 | 1013.0 |
| 20260903195822 | 101 | 53 | 2.0 | 6.0 | 0.00 | 0.00 | 0.00 | 38 | 1013.0 |
| 20260903195337 | 101 | 72 | 0.0 | 5.0 | 0.00 | 0.00 | 0.00 | 38 | 1013.1 |
| 20260903194832 | 101 | 203 | 1.0 | 8.0 | 0.00 | 0.00 | 0.00 | 40 | 1013.1 |
| 20260903194325 | 101 | 162 | 1.0 | 7.0 | 0.00 | 0.00 | 0.00 | 38 | 1013.2 |
| 20260903193820 | 101 | 136 | 1.0 | 7.0 | 0.00 | 0.00 | 0.00 | 40 | 1013.3 |
| 20260903193353 | 101 | 162 | 1.0 | 7.0 | 0.00 | 0.00 | 0.00 | 38 | 1013.4 |
| 20260903192826 | 101 | 242 | 2.0 | 6.0 | 0.00 | 0.00 | 0.00 | 39 | 1013.5 |
| 20260903192319 | 100 | 153 | 0.0 | 7.0 | 0.00 | 0.00 | 0.00 | 39 | 1013.6 |
| 20260903191833 | 101 | 168 | 1.0 | 8.0 | 0.00 | 0.00 | 0.00 | 40 | 1013.7 |
| 20260903191333 | 100 | 221 | 2.0 | 8.0 | 0.00 | 0.00 | 0.00 | 40 | 1013.7 |
| 20260903190827 | 99 | 213 | 3.0 | 7.0 | 0.00 | 0.00 | 0.00 | 42 | 1013.8 |
| 20260903190342 | 100 | 223 | 2.0 | 6.0 | 0.00 | 0.00 | 0.00 | 41 | 1013.8 |
| 20260903185834 | 100 | 207 | 1.0 | 6.0 | 0.00 | 0.00 | 0.00 | 41 | 1013.8 |
| 20260903185349 | 100 | 171 | 2.0 | 6.0 | 0.00 | 0.00 | 0.00 | 41 | 1013.9 |
| 20260903184822 | 100 | 212 | 0.0 | 8.0 | 0.00 | 0.00 | 0.00 | 41 | 1013.9 |
| 20260903184336 | 100 | 149 | 1.0 | 4.0 | 0.00 | 0.00 | 0.00 | 41 | 1014.0 |
| 20260903183852 | 99 | 143 | 1.0 | 8.0 | 0.00 | 0.00 | 0.00 | 42 | 1014.1 |
| 20260903183325 | 98 | 218 | 3.0 | 8.0 | 0.00 | 0.00 | 0.00 | 41 | 1014.2 |
| 20260903182821 | 98 | 247 | 1.0 | 10.0 | 0.00 | 0.00 | 0.00 | 44 | 1014.3 |
| 20260903182322 | 98 | 219 | 3.0 | 10.0 | 0.00 | 0.00 | 0.00 | 42 | 1014.4 |
| 20260903181835 | 98 | 243 | 3.0 | 6.0 | 0.00 | 0.00 | 0.00 | 42 | 1014.4 |
| 20260903181329 | 98 | 155 | 1.0 | 6.0 | 0.00 | 0.00 | 0.00 | 42 | 1014.6 |
| 20260903180822 | 97 | 192 | 3.0 | 6.0 | 0.00 | 0.00 | 0.00 | 44 | 1014.7 |
| 20260903180338 | 98 | 244 | 3.0 | 8.0 | 0.00 | 0.00 | 0.00 | 42 | 1014.8 |
| 20260903175832 | 98 | 210 | 1.0 | 6.0 | 0.00 | 0.00 | 0.00 | 43 | 1014.7 |
| 20260903175327 | 98 | 260 | 2.0 | 6.0 | 0.00 | 0.00 | 0.00 | 43 | 1014.8 |
| 20260903174825 | 98 | 218 | 1.0 | 4.0 | 0.00 | 0.00 | 0.00 | 44 | 1014.9 |
| 20260903174319 | 98 | 169 | 2.0 | 9.0 | 0.00 | 0.00 | 0.00 | 44 | 1015.0 |
| 20260903173832 | 98 | 206 | 3.0 | 9.0 | 0.00 | 0.00 | 0.00 | 44 | 1015.1 |
| 20260903173326 | 97 | 182 | 2.0 | 6.0 | 0.00 | 0.00 | 0.00 | 44 | 1015.2 |
| 20260903172820 | 96 | 214 | 3.0 | 8.0 | 0.00 | 0.00 | 0.00 | 47 | 1015.2 |
| 20260903172335 | 96 | 141 | 2.0 | 8.0 | 0.00 | 0.00 | 0.00 | 47 | 1015.2 |
| 20260903171830 | 96 | 239 | 1.0 | 7.0 | 0.00 | 0.00 | 0.00 | 46 | 1015.4 |
| 20260903171324 | 96 | 208 | 4.0 | 11.0 | 0.00 | 0.00 | 0.00 | 47 | 1015.5 |
| 20260903170819 | 95 | 58 | 3.0 | 11.0 | 0.00 | 0.00 | 0.00 | 48 | 1015.5 |
| 20260903170318 | 96 | 243 | 1.0 | 6.0 | 0.00 | 0.00 | 0.00 | 47 | 1015.5 |
| 20260903165832 | 95 | 219 | 3.0 | 8.0 | 0.00 | 0.00 | 0.00 | 47 | 1015.6 |
| 20260903165327 | 95 | 219 | 4.0 | 8.0 | 0.00 | 0.00 | 0.00 | 48 | 1015.6 |
| 20260903164821 | 95 | 300 | 1.0 | 7.0 | 0.00 | 0.00 | 0.00 | 47 | 1015.7 |
| 20260903164335 | 95 | 213 | 2.0 | 7.0 | 0.00 | 0.00 | 0.00 | 49 | 1015.9 |
| 20260903163831 | 95 | 217 | 1.0 | 8.0 | 0.00 | 0.00 | 0.00 | 51 | 1015.8 |
| 20260903163326 | 94 | 134 | 4.0 | 8.0 | 0.00 | 0.00 | 0.00 | 49 | 1015.9 |
| 20260903162824 | 94 | 120 | 1.0 | 7.0 | 0.00 | 0.00 | 0.00 | 52 | 1015.8 |
| 20260903162318 | 93 | 230 | 1.0 | 6.0 | 0.00 | 0.00 | 0.00 | 51 | 1015.9 |
| 20260903161832 | 94 | 183 | 3.0 | 6.0 | 0.00 | 0.00 | 0.00 | 50 | 1015.9 |
| 20260903161326 | 94 | 183 | 1.0 | 6.0 | 0.00 | 0.00 | 0.00 | 50 | 1016.0 |
| 20260903160821 | 93 | 169 | 3.0 | 7.0 | 0.00 | 0.00 | 0.00 | 51 | 1015.9 |
| 20260903160336 | 93 | 117 | 3.0 | 8.0 | 0.00 | 0.00 | 0.00 | 53 | 1015.9 |
| 20260903155831 | 92 | 164 | 4.0 | 7.0 | 0.00 | 0.00 | 0.00 | 53 | 1016.0 |
| 20260903155326 | 92 | 172 | 3.0 | 7.0 | 0.00 | 0.00 | 0.00 | 53 | 1016.0 |
| 20260903154825 | 92 | 188 | 3.0 | 8.0 | 0.00 | 0.00 | 0.00 | 54 | 1015.8 |
| 20260903154339 | 91 | 167 | 3.0 | 10.0 | 0.00 | 0.00 | 0.00 | 55 | 1015.8 |
| 20260903153832 | 91 | 155 | 4.0 | 10.0 | 0.00 | 0.00 | 0.00 | 54 | 1015.9 |
| 20260903153328 | 91 | 161 | 4.0 | 8.0 | 0.00 | 0.00 | 0.00 | 55 | 1015.9 |
| 20260903152822 | 90 | 205 | 3.0 | 8.0 | 0.00 | 0.00 | 0.00 | 56 | 1015.9 |
| 20260903152336 | 90 | 221 | 4.0 | 7.0 | 0.00 | 0.00 | 0.00 | 56 | 1015.9 |
| 20260903151830 | 90 | 107 | 3.0 | 8.0 | 0.00 | 0.00 | 0.00 | 57 | 1016.0 |
| 20260903151343 | 90 | 220 | 5.0 | 8.0 | 0.00 | 0.00 | 0.00 | 55 | 1015.9 |
| 20260903150820 | 90 | 203 | 3.0 | 10.0 | 0.00 | 0.00 | 0.00 | 57 | 1015.9 |
| 20260903150335 | 90 | 214 | 4.0 | 10.0 | 0.00 | 0.00 | 0.00 | 57 | 1015.9 |
| 20260903145829 | 90 | 177 | 4.0 | 11.0 | 0.00 | 0.00 | 0.00 | 56 | 1015.9 |
| 20260903145323 | 90 | 216 | 3.0 | 9.0 | 0.00 | 0.00 | 0.00 | 56 | 1015.9 |
| 20260903144858 | 90 | 213 | 1.0 | 6.0 | 0.00 | 0.00 | 0.00 | 59 | 1015.8 |
| 20260903144331 | 89 | 160 | 3.0 | 7.0 | 0.00 | 0.00 | 0.00 | 61 | 1015.9 |
| 20260903143845 | 88 | 172 | 3.0 | 7.0 | 0.00 | 0.00 | 0.00 | 61 | 1016.0 |
| 20260903143318 | 88 | 220 | 3.0 | 6.0 | 0.00 | 0.00 | 0.00 | 61 | 1016.0 |
| 20260903142833 | 88 | 149 | 3.0 | 6.0 | 0.00 | 0.00 | 0.00 | 62 | 1016.1 |
| 20260903142348 | 88 | 167 | 3.0 | 8.0 | 0.00 | 0.00 | 0.00 | 62 | 1016.1 |
| 20260903141826 | 88 | 196 | 3.0 | 8.0 | 0.00 | 0.00 | 0.00 | 62 | 1016.2 |
| 20260903141321 | 88 | 229 | 2.0 | 6.0 | 0.00 | 0.00 | 0.00 | 63 | 1016.2 |
| 20260903140835 | 88 | 171 | 2.0 | 5.0 | 0.00 | 0.00 | 0.00 | 62 | 1016.2 |
| 20260903140350 | 88 | 202 | 1.0 | 5.0 | 0.00 | 0.00 | 0.00 | 63 | 1016.3 |
| 20260903135823 | 87 | 168 | 2.0 | 5.0 | 0.00 | 0.00 | 0.00 | 64 | 1016.3 |
| 20260903135319 | 87 | 224 | 0.0 | 4.0 | 0.00 | 0.00 | 0.00 | 65 | 1016.3 |
| 20260903134833 | 86 | 207 | 1.0 | 5.0 | 0.00 | 0.00 | 0.00 | 66 | 1016.4 |
| 20260903134327 | 86 | 167 | 2.0 | 5.0 | 0.00 | 0.00 | 0.00 | 67 | 1016.4 |
| 20260903133825 | 85 | 187 | 2.0 | 5.0 | 0.00 | 0.00 | 0.00 | 67 | 1016.4 |
| 20260903133319 | 85 | 98 | 1.0 | 4.0 | 0.00 | 0.00 | 0.00 | 67 | 1016.4 |
| 20260903132834 | 85 | 166 | 1.0 | 4.0 | 0.00 | 0.00 | 0.00 | 67 | 1016.4 |
| 20260903132347 | 85 | 205 | 3.0 | 4.0 | 0.00 | 0.00 | 0.00 | 68 | 1016.4 |
| 20260903131821 | 85 | 141 | 2.0 | 4.0 | 0.00 | 0.00 | 0.00 | 68 | 1016.4 |
| 20260903131355 | 84 | 153 | 0.0 | 1.0 | 0.00 | 0.00 | 0.00 | 71 | 1016.3 |
| 20260903130828 | 83 | 155 | 0.0 | 2.0 | 0.00 | 0.00 | 0.00 | 71 | 1016.3 |
| 20260903130323 | 83 | 122 | 0.0 | 2.0 | 0.00 | 0.00 | 0.00 | 72 | 1016.4 |
| 20260903125836 | 82 | 84 | 0.0 | 0.0 | 0.00 | 0.00 | 0.00 | 74 | 1016.4 |
| 20260903125335 | 81 | 85 | 0.0 | 2.0 | 0.00 | 0.00 | 0.00 | 75 | 1016.3 |
| 20260903124830 | 79 | 71 | 0.0 | 1.0 | 0.00 | 0.00 | 0.00 | 78 | 1016.3 |
| 20260903124325 | 77 | 98 | 0.0 | 1.0 | 0.00 | 0.00 | 0.00 | 81 | 1016.2 |
| 20260903123840 | 75 | 74 | 0.0 | 1.0 | 0.00 | 0.00 | 0.00 | 84 | 1016.3 |
| 20260903123354 | 75 | 203 | 0.0 | 0.0 | 0.00 | 0.00 | 0.00 | 84 | 1016.2 |
| 20260903122828 | 75 | 158 | 0.0 | 0.0 | 0.00 | 0.00 | 0.00 | 84 | 1016.3 |
| 20260903122322 | 74 | 158 | 0.0 | 0.0 | 0.00 | 0.00 | 0.00 | 85 | 1016.3 |
| 20260903121817 | 74 | 158 | 0.0 | 0.0 | 0.00 | 0.00 | 0.00 | 85 | 1016.3 |
| 20260903121332 | 74 | 105 | 0.0 | 0.0 | 0.00 | 0.00 | 0.00 | 85 | 1016.3 |
| 20260903120851 | 74 | 105 | 0.0 | 0.0 | 0.00 | 0.00 | 0.00 | 85 | 1016.2 |
| 20260903120325 | 74 | 105 | 0.0 | 0.0 | 0.00 | 0.00 | 0.00 | 85 | 1016.2 |
| 20260903115839 | 74 | 105 | 0.0 | 0.0 | 0.00 | 0.00 | 0.00 | 85 | 1016.1 |
| 20260903115332 | 74 | 105 | 0.0 | 0.0 | 0.00 | 0.00 | 0.00 | 85 | 1016.1 |
| 20260903114827 | 74 | 105 | 0.0 | 0.0 | 0.00 | 0.00 | 0.00 | 85 | 1016.0 |
| 20260903114322 | 74 | 103 | 0.0 | 0.0 | 0.00 | 0.00 | 0.00 | 84 | 1016.0 |
| 20260903113856 | 74 | 103 | 0.0 | 0.0 | 0.00 | 0.00 | 0.00 | 84 | 1016.0 |
| 20260903113349 | 74 | 105 | 0.0 | 0.0 | 0.00 | 0.00 | 0.00 | 84 | 1015.9 |
| 20260903112823 | 74 | 105 | 0.0 | 0.0 | 0.00 | 0.00 | 0.00 | 84 | 1015.9 |
| 20260903112321 | 74 | 105 | 0.0 | 0.0 | 0.00 | 0.00 | 0.00 | 84 | 1015.9 |
| 20260903111836 | 74 | 109 | 0.0 | 2.0 | 0.00 | 0.00 | 0.00 | 85 | 1015.9 |
| 20260903111330 | 74 | 109 | 0.0 | 2.0 | 0.00 | 0.00 | 0.00 | 85 | 1015.9 |
| 20260903110825 | 73 | 106 | 0.0 | 0.0 | 0.00 | 0.00 | 0.00 | 85 | 1015.9 |
| 20260903110320 | 73 | 152 | 0.0 | 0.0 | 0.00 | 0.00 | 0.00 | 85 | 1015.8 |
| 20260903105855 | 74 | 152 | 0.0 | 0.0 | 0.00 | 0.00 | 0.00 | 85 | 1015.8 |
| 20260903105329 | 74 | 206 | 0.0 | 0.0 | 0.00 | 0.00 | 0.00 | 85 | 1015.9 |
| 20260903104844 | 74 | 206 | 0.0 | 0.0 | 0.00 | 0.00 | 0.00 | 84 | 1015.8 |
| 20260903104318 | 74 | 206 | 0.0 | 0.0 | 0.00 | 0.00 | 0.00 | 84 | 1015.8 |
| 20260903103837 | 74 | 206 | 0.0 | 0.0 | 0.00 | 0.00 | 0.00 | 83 | 1015.8 |
| 20260903103332 | 75 | 210 | 0.0 | 0.0 | 0.00 | 0.00 | 0.00 | 83 | 1015.7 |
| 20260903102848 | 75 | 211 | 0.0 | 0.0 | 0.00 | 0.00 | 0.00 | 83 | 1015.6 |
| 20260903102342 | 75 | 210 | 0.0 | 0.0 | 0.00 | 0.00 | 0.00 | 82 | 1015.7 |
| 20260903101837 | 75 | 211 | 0.0 | 0.0 | 0.00 | 0.00 | 0.00 | 81 | 1015.6 |
| 20260903101332 | 75 | 215 | 0.0 | 0.0 | 0.00 | 0.00 | 0.00 | 81 | 1015.6 |
| 20260903100827 | 75 | 215 | 0.0 | 0.0 | 0.00 | 0.00 | 0.00 | 81 | 1015.6 |
| 20260903100320 | 76 | 215 | 0.0 | 0.0 | 0.00 | 0.00 | 0.00 | 80 | 1015.5 |
| 20260903095818 | 76 | 215 | 0.0 | 1.0 | 0.00 | 0.00 | 0.00 | 80 | 1015.5 |
| 20260903095333 | 76 | 217 | 0.0 | 1.0 | 0.00 | 0.00 | 0.00 | 80 | 1015.6 |
| 20260903094828 | 76 | 166 | 0.0 | 0.0 | 0.00 | 0.00 | 0.00 | 80 | 1015.6 |
| 20260903094342 | 76 | 171 | 0.0 | 0.0 | 0.00 | 0.00 | 0.00 | 80 | 1015.5 |
| 20260903093836 | 76 | 176 | 0.0 | 0.0 | 0.00 | 0.00 | 0.00 | 79 | 1015.5 |
| 20260903093331 | 77 | 179 | 0.0 | 0.0 | 0.00 | 0.00 | 0.00 | 79 | 1015.5 |
| 20260903092826 | 77 | 180 | 0.0 | 0.0 | 0.00 | 0.00 | 0.00 | 79 | 1015.5 |
| 20260903092322 | 77 | 180 | 0.0 | 0.0 | 0.00 | 0.00 | 0.00 | 79 | 1015.5 |
| 20260903091836 | 77 | 166 | 0.0 | 0.0 | 0.00 | 0.00 | 0.00 | 78 | 1015.5 |
| 20260903091336 | 77 | 166 | 0.0 | 0.0 | 0.00 | 0.00 | 0.00 | 78 | 1015.5 |
| 20260903090831 | 77 | 167 | 0.0 | 0.0 | 0.00 | 0.00 | 0.00 | 78 | 1015.5 |
| 20260903090326 | 77 | 165 | 0.0 | 0.0 | 0.00 | 0.00 | 0.00 | 77 | 1015.5 |
| 20260903085822 | 77 | 162 | 0.0 | 0.0 | 0.00 | 0.00 | 0.00 | 77 | 1015.5 |
| 20260903085337 | 78 | 162 | 0.0 | 0.0 | 0.00 | 0.00 | 0.00 | 77 | 1015.4 |
| 20260903084831 | 78 | 191 | 0.0 | 0.0 | 0.00 | 0.00 | 0.00 | 77 | 1015.3 |
| 20260903084326 | 78 | 122 | 0.0 | 0.0 | 0.00 | 0.00 | 0.00 | 77 | 1015.3 |
| 20260903083826 | 78 | 94 | 0.0 | 0.0 | 0.00 | 0.00 | 0.00 | 77 | 1015.3 |
| 20260903083340 | 78 | 139 | 0.0 | 1.0 | 0.00 | 0.00 | 0.00 | 76 | 1015.3 |
| 20260903082834 | 78 | 137 | 0.0 | 1.0 | 0.00 | 0.00 | 0.00 | 76 | 1015.3 |
| 20260903082328 | 78 | 64 | 0.0 | 0.0 | 0.00 | 0.00 | 0.00 | 76 | 1015.3 |
| 20260903081822 | 78 | 72 | 0.0 | 0.0 | 0.00 | 0.00 | 0.00 | 76 | 1015.2 |
| 20260903081336 | 79 | 148 | 0.0 | 0.0 | 0.00 | 0.00 | 0.00 | 75 | 1015.2 |
| 20260903080851 | 79 | 150 | 0.0 | 0.0 | 0.00 | 0.00 | 0.00 | 75 | 1015.2 |
| 20260903080323 | 79 | 56 | 0.0 | 1.0 | 0.00 | 0.00 | 0.00 | 75 | 1015.1 |
| 20260903075818 | 79 | 213 | 0.0 | 1.0 | 0.00 | 0.00 | 0.00 | 75 | 1015.1 |
| 20260903075333 | 79 | 132 | 0.0 | 1.0 | 0.00 | 0.00 | 0.00 | 75 | 1015.1 |
| 20260903074833 | 78 | 130 | 0.0 | 1.0 | 0.00 | 0.00 | 0.00 | 75 | 1015.1 |
| 20260903074328 | 78 | 143 | 0.0 | 0.0 | 0.00 | 0.00 | 0.00 | 76 | 1015.2 |
| 20260903073821 | 78 | 90 | 0.0 | 0.0 | 0.00 | 0.00 | 0.00 | 76 | 1015.1 |
| 20260903073336 | 78 | 72 | 0.0 | 0.0 | 0.00 | 0.00 | 0.00 | 76 | 1015.1 |
| 20260903072829 | 78 | 137 | 0.0 | 0.0 | 0.00 | 0.00 | 0.00 | 76 | 1015.0 |
| 20260903072324 | 78 | 139 | 0.0 | 0.0 | 0.00 | 0.00 | 0.00 | 75 | 1015.0 |
| 20260903071818 | 79 | 140 | 0.0 | 0.0 | 0.00 | 0.00 | 0.00 | 74 | 1015.1 |
| 20260903071331 | 79 | 140 | 0.0 | 0.0 | 0.00 | 0.00 | 0.00 | 74 | 1015.1 |
| 20260903070823 | 79 | 138 | 0.0 | 1.0 | 0.00 | 0.00 | 0.00 | 74 | 1015.1 |
| 20260903070322 | 79 | 141 | 0.0 | 1.0 | 0.00 | 0.00 | 0.00 | 73 | 1015.0 |
| 20260903065837 | 79 | 153 | 0.0 | 0.0 | 0.00 | 0.00 | 0.00 | 73 | 1015.0 |
| 20260903065351 | 79 | 152 | 0.0 | 0.0 | 0.00 | 0.00 | 0.00 | 73 | 1015.0 |
| 20260903064825 | 79 | 160 | 0.0 | 1.0 | 0.00 | 0.00 | 0.00 | 73 | 1015.1 |
| 20260903064401 | 79 | 184 | 0.0 | 1.0 | 0.00 | 0.00 | 0.00 | 73 | 1015.1 |
| 20260903063837 | 80 | 115 | 0.0 | 0.0 | 0.00 | 0.00 | 0.00 | 72 | 1015.1 |
| 20260903063331 | 80 | 110 | 0.0 | 0.0 | 0.00 | 0.00 | 0.00 | 72 | 1015.1 |
| 20260903062846 | 80 | 139 | 0.0 | 0.0 | 0.00 | 0.00 | 0.00 | 71 | 1015.1 |
| 20260903062341 | 80 | 157 | 0.0 | 0.0 | 0.00 | 0.00 | 0.00 | 71 | 1015.1 |
| 20260903061837 | 81 | 157 | 0.0 | 1.0 | 0.00 | 0.00 | 0.00 | 70 | 1015.1 |
| 20260903061332 | 81 | 154 | 0.0 | 4.0 | 0.00 | 0.00 | 0.00 | 70 | 1015.0 |
| 20260903060832 | 81 | 150 | 1.0 | 5.0 | 0.00 | 0.00 | 0.00 | 70 | 1015.0 |
| 20260903060327 | 81 | 142 | 1.0 | 5.0 | 0.00 | 0.00 | 0.00 | 69 | 1015.0 |
| 20260903055821 | 81 | 143 | 0.0 | 4.0 | 0.00 | 0.00 | 0.00 | 69 | 1015.0 |
| 20260903055336 | 81 | 155 | 0.0 | 0.0 | 0.00 | 0.00 | 0.00 | 68 | 1015.0 |
| 20260903054851 | 82 | 157 | 0.0 | 2.0 | 0.00 | 0.00 | 0.00 | 67 | 1014.9 |
| 20260903053819 | 82 | 182 | 0.0 | 3.0 | 0.00 | 0.00 | 0.00 | 66 | 1014.9 |
| 20260903053334 | 83 | 174 | 0.0 | 3.0 | 0.00 | 0.00 | 0.00 | 66 | 1014.9 |
| 20260903052828 | 83 | 159 | 0.0 | 6.0 | 0.00 | 0.00 | 0.00 | 65 | 1014.9 |
| 20260903052328 | 83 | 179 | 1.0 | 5.0 | 0.00 | 0.00 | 0.00 | 65 | 1014.9 |
| 20260903051821 | 83 | 164 | 1.0 | 5.0 | 0.00 | 0.00 | 0.00 | 64 | 1014.9 |
| 20260903051336 | 83 | 187 | 1.0 | 4.0 | 0.00 | 0.00 | 0.00 | 64 | 1014.8 |
| 20260903050832 | 83 | 160 | 1.0 | 5.0 | 0.00 | 0.00 | 0.00 | 64 | 1014.8 |
| 20260903050323 | 83 | 186 | 1.0 | 4.0 | 0.00 | 0.00 | 0.00 | 64 | 1014.8 |
| 20260903045837 | 84 | 163 | 0.0 | 4.0 | 0.00 | 0.00 | 0.00 | 64 | 1014.8 |
| 20260903045332 | 84 | 165 | 0.0 | 4.0 | 0.00 | 0.00 | 0.00 | 63 | 1014.8 |
| 20260903044828 | 84 | 174 | 1.0 | 4.0 | 0.00 | 0.00 | 0.00 | 63 | 1014.8 |
| 20260903044327 | 84 | 149 | 0.0 | 3.0 | 0.00 | 0.00 | 0.00 | 63 | 1014.8 |
| 20260903043843 | 84 | 182 | 1.0 | 3.0 | 0.00 | 0.00 | 0.00 | 63 | 1014.8 |
| 20260903043337 | 84 | 186 | 1.0 | 5.0 | 0.00 | 0.00 | 0.00 | 62 | 1014.8 |
| 20260903042833 | 84 | 186 | 2.0 | 5.0 | 0.00 | 0.00 | 0.00 | 62 | 1014.7 |
| 20260903042328 | 84 | 177 | 2.0 | 5.0 | 0.00 | 0.00 | 0.00 | 62 | 1014.6 |
| 20260903041822 | 84 | 174 | 2.0 | 5.0 | 0.00 | 0.00 | 0.00 | 62 | 1014.7 |
| 20260903041356 | 84 | 164 | 2.0 | 5.0 | 0.00 | 0.00 | 0.00 | 62 | 1014.8 |
| 20260903040828 | 85 | 146 | 0.0 | 6.0 | 0.00 | 0.00 | 0.00 | 61 | 1014.8 |
| 20260903040326 | 85 | 125 | 2.0 | 6.0 | 0.00 | 0.00 | 0.00 | 61 | 1014.8 |
| 20260903035819 | 85 | 216 | 1.0 | 4.0 | 0.00 | 0.00 | 0.00 | 61 | 1014.7 |
| 20260903035334 | 85 | 188 | 2.0 | 5.0 | 0.00 | 0.00 | 0.00 | 60 | 1014.7 |
| 20260903034829 | 85 | 171 | 2.0 | 5.0 | 0.00 | 0.00 | 0.00 | 60 | 1014.7 |
| 20260903034324 | 85 | 158 | 2.0 | 6.0 | 0.00 | 0.00 | 0.00 | 60 | 1014.7 |
| 20260903033857 | 85 | 139 | 2.0 | 6.0 | 0.00 | 0.00 | 0.00 | 60 | 1014.7 |
| 20260903033332 | 84 | 121 | 2.0 | 4.0 | 0.00 | 0.00 | 0.00 | 60 | 1014.7 |
| 20260903032825 | 84 | 203 | 1.0 | 4.0 | 0.00 | 0.00 | 0.00 | 60 | 1014.6 |
| 20260903032323 | 84 | 175 | 1.0 | 3.0 | 0.00 | 0.00 | 0.00 | 60 | 1014.7 |
| 20260903031818 | 84 | 195 | 1.0 | 2.0 | 0.00 | 0.00 | 0.00 | 60 | 1014.7 |
| 20260903031332 | 84 | 168 | 0.0 | 3.0 | 0.00 | 0.00 | 0.00 | 60 | 1014.6 |
| 20260903030827 | 84 | 164 | 1.0 | 4.0 | 0.00 | 0.00 | 0.00 | 60 | 1014.6 |
| 20260903030322 | 83 | 177 | 1.0 | 4.0 | 0.00 | 0.00 | 0.00 | 61 | 1014.6 |
| 20260903025837 | 82 | 164 | 0.0 | 0.0 | 0.00 | 0.00 | 0.00 | 63 | 1014.5 |
| 20260903025331 | 81 | 146 | 0.0 | 0.0 | 0.00 | 0.00 | 0.00 | 64 | 1014.5 |
| 20260903024827 | 80 | 122 | 0.0 | 0.0 | 0.00 | 0.00 | 0.00 | 64 | 1014.5 |
| 20260903024325 | 80 | 122 | 0.0 | 0.0 | 0.00 | 0.00 | 0.00 | 64 | 1014.4 |
| 20260903023841 | 80 | 122 | 0.0 | 0.0 | 0.00 | 0.00 | 0.00 | 64 | 1014.4 |
| 20260903023354 | 81 | 122 | 0.0 | 0.0 | 0.00 | 0.00 | 0.00 | 64 | 1014.4 |
| 20260903022828 | 81 | 122 | 0.0 | 0.0 | 0.00 | 0.00 | 0.00 | 64 | 1014.3 |
| 20260903022323 | 81 | 122 | 0.0 | 0.0 | 0.00 | 0.00 | 0.00 | 63 | 1014.3 |
| 20260903021817 | 81 | 122 | 0.0 | 0.0 | 0.00 | 0.00 | 0.00 | 64 | 1014.2 |
| 20260903021332 | 81 | 122 | 0.0 | 0.0 | 0.00 | 0.00 | 0.00 | 66 | 1014.2 |
| 20260903020847 | 81 | 122 | 0.0 | 0.0 | 0.00 | 0.00 | 0.00 | 64 | 1014.1 |
| 20260903020322 | 81 | 122 | 0.0 | 0.0 | 0.00 | 0.00 | 0.00 | 64 | 1014.1 |
| 20260903015820 | 81 | 122 | 0.0 | 0.0 | 0.00 | 0.00 | 0.00 | 63 | 1014.0 |
| 20260903015335 | 81 | 122 | 0.0 | 0.0 | 0.00 | 0.00 | 0.00 | 63 | 1013.9 |
| 20260903014829 | 82 | 122 | 0.0 | 0.0 | 0.00 | 0.00 | 0.00 | 63 | 1013.9 |
| 20260903014325 | 82 | 122 | 0.0 | 0.0 | 0.00 | 0.00 | 0.00 | 62 | 1013.8 |
| 20260903013819 | 83 | 122 | 0.0 | 0.0 | 0.00 | 0.00 | 0.00 | 61 | 1013.7 |
| 20260903013333 | 83 | 122 | 0.0 | 0.0 | 0.00 | 0.00 | 0.00 | 61 | 1013.7 |
| 20260903012827 | 84 | 122 | 0.0 | 0.0 | 0.00 | 0.00 | 0.00 | 59 | 1013.6 |
| 20260903012327 | 84 | 122 | 0.0 | 0.0 | 0.00 | 0.00 | 0.00 | 59 | 1013.5 |
| 20260903011820 | 85 | 122 | 0.0 | 0.0 | 0.00 | 0.00 | 0.00 | 58 | 1013.5 |
| 20260903011335 | 85 | 122 | 0.0 | 0.0 | 0.00 | 0.00 | 0.00 | 57 | 1013.4 |